^^
Saratoga-Weather Station Historical Data
Daily Summary for January 18, 2022 Units:  Metric    English   Both
Daily Weekly Monthly Yearly Custom
  High: Low: Average:
Temperature: 8.1 °C 3.9 °C 5.3 °C
Dew Point: 5.2 °C 1.8 °C 3.4 °C
Humidity: 95% 75% 88%
Wind Speed: 14.5km/h 0km/h 3.2km/h
Wind Gust: 19.3km/h - -
Wind- - SSE
Pressure: 1037.9 hPa 1032.2 hPa -
Precipitation: 0.0 mm    
Historical Graphs
 
 
Tabular Data for January 18, 2022
Time Temperature Dew Point Pressure Wind Wind Speed Wind Gust Humidity Rainfall Rate (Hourly) solar
00:04 3.9 °C 3 °C 1037.2 hPa WNW 4.7 km/h 4.8 km/h 94% 0.0 mm 0 W/m2
00:09 3.9 °C 3 °C 1037.2 hPa Calm   1.6 km/h 94% 0.0 mm 0 W/m2
00:14 3.9 °C 3 °C 1037.2 hPa SW 3.2 km/h 3.2 km/h 94% 0.0 mm 0 W/m2
00:19 3.9 °C 3 °C 1037.2 hPa West 3.2 km/h 6.4 km/h 94% 0.0 mm 0 W/m2
00:24 3.9 °C 3 °C 1037.2 hPa West 4.7 km/h 11.3 km/h 94% 0.0 mm 0 W/m2
00:29 4 °C 3.3 °C 1037.2 hPa West 1.4 km/h 3.2 km/h 95% 0.0 mm 0 W/m2
00:34 4 °C 3.1 °C 1037.2 hPa West 3.2 km/h 9.7 km/h 94% 0.0 mm 0 W/m2
00:39 3.9 °C 3 °C 1037.2 hPa WNW 4.7 km/h 6.4 km/h 94% 0.0 mm 0 W/m2
00:44 3.9 °C 3 °C 1036.9 hPa WNW 3.2 km/h 6.4 km/h 94% 0.0 mm 0 W/m2
00:49 3.9 °C 3 °C 1037.2 hPa West 6.4 km/h 11.3 km/h 94% 0.0 mm 0 W/m2
00:54 3.9 °C 3.2 °C 1037.2 hPa South 1.4 km/h 9.7 km/h 95% 0.0 mm 0 W/m2
00:59 3.9 °C 3.2 °C 1037.2 hPa WNW 1.4 km/h 4.8 km/h 95% 0.0 mm 0 W/m2
01:04 3.9 °C 3 °C 1037.2 hPa Calm   9.7 km/h 94% 0.0 mm 0 W/m2
01:09 3.9 °C 3 °C 1037.2 hPa WNW 3.2 km/h 11.3 km/h 94% 0.0 mm 0 W/m2
01:14 3.9 °C 3 °C 1037.2 hPa WNW 3.2 km/h 6.4 km/h 94% 0.0 mm 0 W/m2
01:19 3.9 °C 3 °C 1037.2 hPa WNW 3.2 km/h 6.4 km/h 94% 0.0 mm 0 W/m2
01:24 3.9 °C 3 °C 1037.2 hPa WNW 3.2 km/h 4.8 km/h 94% 0.0 mm 0 W/m2
01:29 3.9 °C 3 °C 1037.2 hPa West 9.7 km/h 9.7 km/h 94% 0.0 mm 0 W/m2
01:34 3.9 °C 3.2 °C 1037.2 hPa WNW 3.2 km/h 4.8 km/h 95% 0.0 mm 0 W/m2
01:39 3.9 °C 3.2 °C 1037.2 hPa WNW 3.2 km/h 6.4 km/h 95% 0.0 mm 0 W/m2
01:44 3.9 °C 3.2 °C 1037.2 hPa West 6.4 km/h 6.4 km/h 95% 0.0 mm 0 W/m2
01:49 3.9 °C 3.2 °C 1037.2 hPa West 4.7 km/h 6.4 km/h 95% 0.0 mm 0 W/m2
01:54 4 °C 3.3 °C 1037.2 hPa Calm   3.2 km/h 95% 0.0 mm 0 W/m2
01:59 4 °C 3.3 °C 1037.2 hPa Calm     95% 0.0 mm 0 W/m2
02:04 3.9 °C 3.2 °C 1037.2 hPa West 3.2 km/h 4.8 km/h 95% 0.0 mm 0 W/m2
02:09 3.9 °C 3.2 °C 1037.2 hPa West 3.2 km/h 6.4 km/h 95% 0.0 mm 0 W/m2
02:14 3.9 °C 3.2 °C 1037.2 hPa West 3.2 km/h 6.4 km/h 95% 0.0 mm 0 W/m2
02:19 4 °C 3.3 °C 1037.2 hPa WNW 1.4 km/h 9.7 km/h 95% 0.0 mm 0 W/m2
02:24 4.1 °C 3.4 °C 1037.2 hPa WNW 3.2 km/h 6.4 km/h 95% 0.0 mm 0 W/m2
02:29 4.1 °C 3.4 °C 1037.2 hPa West 6.4 km/h 8 km/h 95% 0.0 mm 0 W/m2
02:34 4.2 °C 3.3 °C 1037.2 hPa West 3.2 km/h 6.4 km/h 94% 0.0 mm 0 W/m2
02:39 4.2 °C 3.5 °C 1037.2 hPa West 4.7 km/h 6.4 km/h 95% 0.0 mm 0 W/m2
02:44 4.3 °C 3.4 °C 1037.2 hPa WNW 4.7 km/h 6.4 km/h 94% 0.0 mm 0 W/m2
02:49 4.3 °C 3.4 °C 1037.2 hPa West 4.7 km/h 6.4 km/h 94% 0.0 mm 0 W/m2
02:54 4.3 °C 3.4 °C 1037.2 hPa West 4.7 km/h 6.4 km/h 94% 0.0 mm 0 W/m2
02:59 4.3 °C 3.4 °C 1037.2 hPa West 6.4 km/h 6.4 km/h 94% 0.0 mm 0 W/m2
03:04 4.3 °C 3.4 °C 1037.2 hPa West 3.2 km/h 9.7 km/h 94% 0.0 mm 0 W/m2
03:09 4.3 °C 3.4 °C 1037.2 hPa WNW 1.4 km/h 11.3 km/h 94% 0.0 mm 0 W/m2
03:14 4.3 °C 3.4 °C 1037.2 hPa WNW 3.2 km/h 4.8 km/h 94% 0.0 mm 0 W/m2
03:19 4.3 °C 3.4 °C 1037.2 hPa West 3.2 km/h 4.8 km/h 94% 0.0 mm 0 W/m2
03:24 4.3 °C 3.4 °C 1037.2 hPa West 1.4 km/h 4.8 km/h 94% 0.0 mm 0 W/m2
03:29 4.3 °C 3.4 °C 1037.2 hPa West 3.2 km/h 6.4 km/h 94% 0.0 mm 0 W/m2
03:34 4.3 °C 3.4 °C 1037.2 hPa WNW 3.2 km/h 6.4 km/h 94% 0.0 mm 0 W/m2
03:39 4.3 °C 3.4 °C 1037.2 hPa West 3.2 km/h 4.8 km/h 94% 0.0 mm 0 W/m2
03:44 4.4 °C 3.5 °C 1036.9 hPa West 1.4 km/h 4.8 km/h 94% 0.0 mm 0 W/m2
03:49 4.4 °C 3.5 °C 1036.9 hPa West 3.2 km/h 3.2 km/h 94% 0.0 mm 0 W/m2
03:54 4.4 °C 3.5 °C 1036.9 hPa West 3.2 km/h 4.8 km/h 94% 0.0 mm 0 W/m2
03:59 4.4 °C 3.5 °C 1036.9 hPa West 4.7 km/h 4.8 km/h 94% 0.0 mm 0 W/m2
04:04 4.4 °C 3.5 °C 1036.9 hPa West 3.2 km/h 6.4 km/h 94% 0.0 mm 0 W/m2
04:09 4.4 °C 3.5 °C 1036.9 hPa WSW 4.7 km/h 9.7 km/h 94% 0.0 mm 0 W/m2
04:14 4.4 °C 3.5 °C 1036.9 hPa WNW 4.7 km/h 4.8 km/h 94% 0.0 mm 0 W/m2
04:19 4.4 °C 3.5 °C 1036.9 hPa West 6.4 km/h 12.9 km/h 94% 0.0 mm 0 W/m2
04:24 4.4 °C 3.5 °C 1036.9 hPa West 3.2 km/h 9.7 km/h 94% 0.0 mm 0 W/m2
04:29 4.5 °C 3.6 °C 1036.9 hPa West 4.7 km/h 12.9 km/h 94% 0.0 mm 0 W/m2
04:34 4.5 °C 3.6 °C 1036.9 hPa West 1.4 km/h 3.2 km/h 94% 0.0 mm 0 W/m2
04:39 4.5 °C 3.6 °C 1036.9 hPa WNW 3.2 km/h 3.2 km/h 94% 0.0 mm 0 W/m2
04:44 4.6 °C 3.7 °C 1036.9 hPa WNW 1.4 km/h 3.2 km/h 94% 0.0 mm 0 W/m2
04:49 4.6 °C 3.7 °C 1036.9 hPa WNW 3.2 km/h 3.2 km/h 94% 0.0 mm 0 W/m2
04:54 4.6 °C 3.7 °C 1036.9 hPa West 4.7 km/h 4.8 km/h 94% 0.0 mm 0 W/m2
04:59 4.6 °C 3.7 °C 1036.9 hPa West 3.2 km/h 4.8 km/h 94% 0.0 mm 0 W/m2
05:04 4.7 °C 3.8 °C 1036.9 hPa Calm   1.6 km/h 94% 0.0 mm 0 W/m2
05:09 4.7 °C 3.8 °C 1036.9 hPa Calm   4.8 km/h 94% 0.0 mm 0 W/m2
05:14 4.7 °C 3.8 °C 1036.9 hPa Calm     94% 0.0 mm 0 W/m2
05:19 4.6 °C 3.7 °C 1036.9 hPa Calm     94% 0.0 mm 0 W/m2
05:24 4.6 °C 3.7 °C 1037.2 hPa Calm     94% 0.0 mm 0 W/m2
05:30 4.6 °C 3.7 °C 1037.2 hPa Calm     94% 0.0 mm 0 W/m2
05:35 4.5 °C 3.6 °C 1036.9 hPa Calm     94% 0.0 mm 0 W/m2
05:40 4.5 °C 3.6 °C 1036.9 hPa Calm     94% 0.0 mm 0 W/m2
05:45 4.4 °C 3.5 °C 1037.2 hPa Calm   4.8 km/h 94% 0.0 mm 0 W/m2
05:50 4.4 °C 3.5 °C 1036.9 hPa Calm     94% 0.0 mm 0 W/m2
05:55 4.3 °C 3.4 °C 1036.9 hPa Calm   3.2 km/h 94% 0.0 mm 0 W/m2
06:00 4.3 °C 3.4 °C 1036.9 hPa Calm   3.2 km/h 94% 0.0 mm 0 W/m2
06:05 4.3 °C 3.4 °C 1036.9 hPa Calm     94% 0.0 mm 0 W/m2
06:10 4.3 °C 3.4 °C 1037.2 hPa Calm   3.2 km/h 94% 0.0 mm 0 W/m2
06:15 4.3 °C 3.4 °C 1037.2 hPa Calm     94% 0.0 mm 0 W/m2
06:20 4.3 °C 3.4 °C 1037.2 hPa Calm     94% 0.0 mm 0 W/m2
06:25 4.3 °C 3.4 °C 1037.2 hPa Calm     94% 0.0 mm 0 W/m2
06:30 4.3 °C 3.6 °C 1037.2 hPa SE 1.4 km/h 3.2 km/h 95% 0.0 mm 0 W/m2
06:35 4.4 °C 3.7 °C 1037.2 hPa Calm   4.8 km/h 95% 0.0 mm 0 W/m2
06:40 4.4 °C 3.5 °C 1037.2 hPa Calm     94% 0.0 mm 0 W/m2
06:45 4.4 °C 3.5 °C 1037.2 hPa NNE 1.4 km/h 4.8 km/h 94% 0.0 mm 0 W/m2
06:50 4.5 °C 3.8 °C 1037.2 hPa East 3.2 km/h 4.8 km/h 95% 0.0 mm 0 W/m2
06:55 4.6 °C 3.9 °C 1037.2 hPa Calm     95% 0.0 mm 0 W/m2
07:00 4.6 °C 3.9 °C 1037.2 hPa East 3.2 km/h 4.8 km/h 95% 0.0 mm 0 W/m2
07:05 4.6 °C 3.9 °C 1037.2 hPa Calm     95% 0.0 mm 0 W/m2
07:10 4.6 °C 3.7 °C 1037.2 hPa Calm     94% 0.0 mm 0 W/m2
07:15 4.6 °C 3.7 °C 1037.2 hPa Calm     94% 0.0 mm 0 W/m2
07:20 4.6 °C 3.7 °C 1037.2 hPa Calm     94% 0.0 mm 0 W/m2
07:25 4.6 °C 3.7 °C 1037.2 hPa Calm   1.6 km/h 94% 0.0 mm 0 W/m2
07:30 4.6 °C 3.7 °C 1037.2 hPa Calm     94% 0.0 mm 0 W/m2
07:35 4.6 °C 3.7 °C 1037.2 hPa Calm     94% 0.0 mm 0 W/m2
07:41 4.6 °C 3.7 °C 1037.6 hPa Calm   3.2 km/h 94% 0.0 mm 0 W/m2
07:46 4.6 °C 3.7 °C 1037.2 hPa Calm     94% 0.0 mm 0 W/m2
07:51 4.6 °C 3.7 °C 1037.6 hPa Calm   3.2 km/h 94% 0.0 mm 0 W/m2
07:56 4.6 °C 3.7 °C 1037.6 hPa Calm     94% 0.0 mm 0 W/m2
08:01 4.6 °C 3.7 °C 1037.6 hPa Calm     94% 0.0 mm 0 W/m2
08:06 4.5 °C 3.6 °C 1037.6 hPa Calm   3.2 km/h 94% 0.0 mm 0 W/m2
08:11 4.6 °C 3.7 °C 1037.6 hPa Calm     94% 0.0 mm 0 W/m2
08:16 4.6 °C 3.7 °C 1037.6 hPa NNW 3.2 km/h 3.2 km/h 94% 0.0 mm 0 W/m2
08:21 4.6 °C 3.7 °C 1037.6 hPa Calm     94% 0.0 mm 0 W/m2
08:26 4.6 °C 3.7 °C 1037.6 hPa Calm     94% 0.0 mm 0 W/m2
08:31 4.6 °C 3.7 °C 1037.6 hPa Calm     94% 0.0 mm 0 W/m2
08:36 4.6 °C 3.7 °C 1037.6 hPa Calm     94% 0.0 mm 5 W/m2
08:41 4.6 °C 3.7 °C 1037.6 hPa Calm     94% 0.0 mm 7 W/m2
08:46 4.6 °C 3.7 °C 1037.6 hPa Calm     94% 0.0 mm 11 W/m2
08:51 4.6 °C 3.7 °C 1037.6 hPa Calm   3.2 km/h 94% 0.0 mm 12 W/m2
08:56 4.6 °C 3.7 °C 1037.6 hPa Calm   3.2 km/h 94% 0.0 mm 14 W/m2
09:01 4.7 °C 3.8 °C 1037.9 hPa NW 3.2 km/h 3.2 km/h 94% 0.0 mm 18 W/m2
09:06 4.7 °C 3.8 °C 1037.6 hPa Calm   4.8 km/h 94% 0.0 mm 21 W/m2
09:11 4.8 °C 3.9 °C 1037.6 hPa NE 1.4 km/h 3.2 km/h 94% 0.0 mm 25 W/m2
09:16 4.9 °C 4 °C 1037.6 hPa Calm   6.4 km/h 94% 0.0 mm 25 W/m2
09:21 4.9 °C 4 °C 1037.6 hPa Calm   1.6 km/h 94% 0.0 mm 30 W/m2
09:26 4.9 °C 4 °C 1037.2 hPa Calm   4.8 km/h 94% 0.0 mm 40 W/m2
09:31 5 °C 4.1 °C 1037.6 hPa Calm   1.6 km/h 94% 0.0 mm 44 W/m2
09:36 5.1 °C 4.2 °C 1037.2 hPa North 3.2 km/h 3.2 km/h 94% 0.0 mm 49 W/m2
09:41 5.1 °C 4.2 °C 1037.2 hPa Calm     94% 0.0 mm 53 W/m2
09:46 5.2 °C 4.3 °C 1037.6 hPa Calm   1.6 km/h 94% 0.0 mm 58 W/m2
09:51 5.2 °C 4.3 °C 1037.6 hPa Calm   3.2 km/h 94% 0.0 mm 56 W/m2
09:56 5.3 °C 4.3 °C 1037.6 hPa ENE 3.2 km/h 4.8 km/h 93% 0.0 mm 60 W/m2
10:01 5.3 °C 4.3 °C 1037.6 hPa SE 3.2 km/h 3.2 km/h 93% 0.0 mm 60 W/m2
10:06 5.4 °C 4.4 °C 1037.6 hPa Calm   3.2 km/h 93% 0.0 mm 65 W/m2
10:11 5.4 °C 4.4 °C 1037.6 hPa East 3.2 km/h 4.8 km/h 93% 0.0 mm 70 W/m2
10:16 5.5 °C 4.5 °C 1037.6 hPa ESE 1.4 km/h 6.4 km/h 93% 0.0 mm 79 W/m2
10:21 5.6 °C 4.6 °C 1037.6 hPa SE 1.4 km/h 4.8 km/h 93% 0.0 mm 91 W/m2
10:26 5.6 °C 4.6 °C 1037.6 hPa East 4.7 km/h 8 km/h 93% 0.0 mm 79 W/m2
10:31 5.6 °C 4.4 °C 1037.6 hPa NE 1.4 km/h 3.2 km/h 92% 0.0 mm 77 W/m2
10:36 5.7 °C 4.7 °C 1037.9 hPa ENE 3.2 km/h 8 km/h 93% 0.0 mm 90 W/m2
10:41 5.7 °C 4.7 °C 1037.9 hPa SW 1.4 km/h 4.8 km/h 93% 0.0 mm 91 W/m2
10:46 5.8 °C 4.6 °C 1037.9 hPa East 3.2 km/h 6.4 km/h 92% 0.0 mm 90 W/m2
10:51 5.8 °C 4.6 °C 1037.9 hPa Calm   3.2 km/h 92% 0.0 mm 118 W/m2
10:56 5.9 °C 4.7 °C 1037.9 hPa ENE 3.2 km/h 9.7 km/h 92% 0.0 mm 111 W/m2
11:01 6.1 °C 4.9 °C 1037.9 hPa East 3.2 km/h 4.8 km/h 92% 0.0 mm 146 W/m2
11:06 6.2 °C 5 °C 1037.6 hPa NE 1.4 km/h 9.7 km/h 92% 0.0 mm 114 W/m2
11:11 6.3 °C 4.9 °C 1037.6 hPa ENE 4.7 km/h 6.4 km/h 91% 0.0 mm 139 W/m2
11:16 6.3 °C 4.9 °C 1037.6 hPa NE 6.4 km/h 9.7 km/h 91% 0.0 mm 139 W/m2
11:21 6.5 °C 5.1 °C 1037.6 hPa East 7.9 km/h 11.3 km/h 91% 0.0 mm 171 W/m2
11:26 6.7 °C 5.2 °C 1037.6 hPa East 4.7 km/h 9.7 km/h 90% 0.0 mm 141 W/m2
11:31 6.7 °C 5 °C 1037.6 hPa NE 6.4 km/h 8 km/h 89% 0.0 mm 56 W/m2
11:36 6.8 °C 5.1 °C 1037.6 hPa NE 3.2 km/h 8 km/h 89% 0.0 mm 39 W/m2
11:41 6.8 °C 5.1 °C 1037.6 hPa ENE 3.2 km/h 8 km/h 89% 0.0 mm 53 W/m2
11:46 6.9 °C 5.1 °C 1037.6 hPa ENE 3.2 km/h 4.8 km/h 88% 0.0 mm 35 W/m2
11:51 7 °C 5 °C 1037.2 hPa ESE 1.4 km/h 4.8 km/h 87% 0.0 mm 40 W/m2
11:56 7.1 °C 4.9 °C 1037.2 hPa ENE 4.7 km/h 9.7 km/h 86% 0.0 mm 39 W/m2
12:01 7.2 °C 5 °C 1037.2 hPa ENE 1.4 km/h 11.3 km/h 86% 0.0 mm 58 W/m2
12:06 7.3 °C 4.9 °C 1037.2 hPa ENE 9.7 km/h 14.5 km/h 85% 0.0 mm 111 W/m2
12:11 7.4 °C 4.9 °C 1037.2 hPa SSE 3.2 km/h 9.7 km/h 84% 0.0 mm 111 W/m2
12:16 7.5 °C 4.8 °C 1036.9 hPa SE 3.2 km/h 14.5 km/h 83% 0.0 mm 100 W/m2
12:21 7.5 °C 4.8 °C 1036.9 hPa North 3.2 km/h 4.8 km/h 83% 0.0 mm 113 W/m2
12:26 7.5 °C 4.8 °C 1036.9 hPa ESE 3.2 km/h 8 km/h 83% 0.0 mm 104 W/m2
12:31 7.4 °C 4.7 °C 1036.9 hPa ENE 7.9 km/h 8 km/h 83% 0.0 mm 95 W/m2
12:36 7.5 °C 4.8 °C 1036.9 hPa NE 4.7 km/h 6.4 km/h 83% 0.0 mm 109 W/m2
12:41 7.6 °C 4.9 °C 1036.9 hPa ESE 3.2 km/h 6.4 km/h 83% 0.0 mm 120 W/m2
12:46 7.6 °C 4.9 °C 1036.9 hPa ENE 7.9 km/h 12.9 km/h 83% 0.0 mm 118 W/m2
12:51 7.6 °C 4.7 °C 1036.6 hPa Calm   8 km/h 82% 0.0 mm 127 W/m2
12:56 7.6 °C 4.5 °C 1036.6 hPa ESE 1.4 km/h 8 km/h 81% 0.0 mm 165 W/m2
13:01 7.7 °C 4.6 °C 1036.6 hPa ESE 6.4 km/h 6.4 km/h 81% 0.0 mm 144 W/m2
13:06 7.7 °C 4.5 °C 1036.6 hPa ENE 3.2 km/h 12.9 km/h 80% 0.0 mm 139 W/m2
13:11 7.8 °C 4.4 °C 1036.6 hPa East 9.7 km/h 9.7 km/h 79% 0.0 mm 156 W/m2
13:17 7.8 °C 4.2 °C 1036.6 hPa East 4.7 km/h 12.9 km/h 78% 0.0 mm 70 W/m2
13:22 7.7 °C 3.9 °C 1036.6 hPa East 11.1 km/h 16.1 km/h 77% 0.0 mm 120 W/m2
13:27 7.8 °C 3.8 °C 1036.2 hPa East 6.4 km/h 14.5 km/h 76% 0.0 mm 165 W/m2
13:32 7.9 °C 4.1 °C 1036.2 hPa ESE 4.7 km/h 9.7 km/h 77% 0.0 mm 128 W/m2
13:37 8.1 °C 4.1 °C 1036.2 hPa ESE 9.7 km/h 11.3 km/h 76% 0.0 mm 132 W/m2
13:42 8.1 °C 4.1 °C 1036.2 hPa ESE 6.4 km/h 12.9 km/h 76% 0.0 mm 100 W/m2
13:47 8 °C 3.8 °C 1036.2 hPa SE 6.4 km/h 11.3 km/h 75% 0.0 mm 116 W/m2
13:52 7.9 °C 3.9 °C 1036.2 hPa ENE 6.4 km/h 14.5 km/h 76% 0.0 mm 141 W/m2
13:57 7.9 °C 3.9 °C 1036.2 hPa East 1.4 km/h 9.7 km/h 76% 0.0 mm 142 W/m2
14:02 7.9 °C 3.9 °C 1036.2 hPa ENE 9.7 km/h 11.3 km/h 76% 0.0 mm 109 W/m2
14:07 7.9 °C 3.9 °C 1036.2 hPa ESE 6.4 km/h 14.5 km/h 76% 0.0 mm 137 W/m2
14:12 7.9 °C 3.9 °C 1035.9 hPa ESE 6.4 km/h 9.7 km/h 76% 0.0 mm 134 W/m2
14:17 7.9 °C 3.9 °C 1035.9 hPa East 4.7 km/h 12.9 km/h 76% 0.0 mm 121 W/m2
14:22 7.8 °C 3.8 °C 1035.9 hPa SE 3.2 km/h 9.7 km/h 76% 0.0 mm 84 W/m2
14:27 7.7 °C 3.9 °C 1035.9 hPa SE 6.4 km/h 11.3 km/h 77% 0.0 mm 113 W/m2
14:32 7.7 °C 3.9 °C 1035.6 hPa East 9.7 km/h 11.3 km/h 77% 0.0 mm 111 W/m2
14:37 7.7 °C 3.7 °C 1035.9 hPa SE 3.2 km/h 6.4 km/h 76% 0.0 mm 107 W/m2
14:42 7.7 °C 3.7 °C 1035.6 hPa ESE 3.2 km/h 6.4 km/h 76% 0.0 mm 91 W/m2
14:47 7.7 °C 3.9 °C 1035.6 hPa ESE 6.4 km/h 8 km/h 77% 0.0 mm 118 W/m2
14:52 7.8 °C 4 °C 1035.6 hPa East 4.7 km/h 12.9 km/h 77% 0.0 mm 72 W/m2
14:57 7.7 °C 3.7 °C 1035.6 hPa ESE 6.4 km/h 19.3 km/h 76% 0.0 mm 67 W/m2
15:02 7.7 °C 3.7 °C 1035.6 hPa ESE 6.4 km/h 9.7 km/h 76% 0.0 mm 69 W/m2
15:07 7.7 °C 3.7 °C 1035.6 hPa ESE 6.4 km/h 16.1 km/h 76% 0.0 mm 72 W/m2
15:12 7.6 °C 3.6 °C 1035.6 hPa ESE 6.4 km/h 11.3 km/h 76% 0.0 mm 40 W/m2
15:17 7.4 °C 3.6 °C 1035.6 hPa East 4.7 km/h 11.3 km/h 77% 0.0 mm 40 W/m2
15:22 7.3 °C 3.5 °C 1035.2 hPa East 3.2 km/h 9.7 km/h 77% 0.0 mm 40 W/m2
15:27 7.2 °C 3.6 °C 1035.2 hPa SE 1.4 km/h 9.7 km/h 78% 0.0 mm 32 W/m2
15:32 7.1 °C 3.5 °C 1035.2 hPa East 6.4 km/h 14.5 km/h 78% 0.0 mm 33 W/m2
15:37 7.1 °C 3.5 °C 1035.2 hPa East 3.2 km/h 12.9 km/h 78% 0.0 mm 54 W/m2
15:42 7.1 °C 3.5 °C 1035.2 hPa ESE 6.4 km/h 9.7 km/h 78% 0.0 mm 77 W/m2
15:47 7.1 °C 3.7 °C 1035.2 hPa SE 6.4 km/h 12.9 km/h 79% 0.0 mm 74 W/m2
15:52 7.2 °C 3.6 °C 1035.2 hPa ESE 9.7 km/h 14.5 km/h 78% 0.0 mm 60 W/m2
15:57 7.3 °C 3.7 °C 1035.2 hPa ENE 1.4 km/h 6.4 km/h 78% 0.0 mm 51 W/m2
16:02 7.3 °C 3.7 °C 1035.2 hPa ESE 9.7 km/h 11.3 km/h 78% 0.0 mm 44 W/m2
16:07 7.4 °C 3.6 °C 1035.2 hPa ENE 3.2 km/h 11.3 km/h 77% 0.0 mm 40 W/m2
16:12 7.3 °C 3.5 °C 1035.2 hPa East 11.1 km/h 14.5 km/h 77% 0.0 mm 35 W/m2
16:17 7.3 °C 3.7 °C 1035.2 hPa ESE 9.7 km/h 9.7 km/h 78% 0.0 mm 35 W/m2
16:22 7.3 °C 3.7 °C 1035.2 hPa ENE 14.5 km/h 14.5 km/h 78% 0.0 mm 32 W/m2
16:27 7.2 °C 3.4 °C 1034.9 hPa ENE 3.2 km/h 11.3 km/h 77% 0.0 mm 23 W/m2
16:32 7.2 °C 3.4 °C 1034.9 hPa Calm   6.4 km/h 77% 0.0 mm 23 W/m2
16:37 7.1 °C 3.5 °C 1034.9 hPa East 3.2 km/h 9.7 km/h 78% 0.0 mm 21 W/m2
16:42 7 °C 3.4 °C 1034.9 hPa ENE 9.7 km/h 9.7 km/h 78% 0.0 mm 19 W/m2
16:47 6.9 °C 3.3 °C 1034.5 hPa East 4.7 km/h 11.3 km/h 78% 0.0 mm 16 W/m2
16:52 6.8 °C 3.2 °C 1034.5 hPa Calm   6.4 km/h 78% 0.0 mm 12 W/m2
16:57 6.8 °C 3.4 °C 1034.5 hPa NE 7.9 km/h 9.7 km/h 79% 0.0 mm 9 W/m2
17:02 6.8 °C 3.4 °C 1034.5 hPa SE 3.2 km/h 8 km/h 79% 0.0 mm 7 W/m2
17:07 6.7 °C 3.3 °C 1034.5 hPa ESE 3.2 km/h 8 km/h 79% 0.0 mm 5 W/m2
17:12 6.7 °C 3.5 °C 1034.5 hPa East 9.7 km/h 9.7 km/h 80% 0.0 mm 0 W/m2
17:17 6.6 °C 3.4 °C 1034.5 hPa East 4.7 km/h 11.3 km/h 80% 0.0 mm 0 W/m2
17:22 6.6 °C 3.4 °C 1034.2 hPa ENE 4.7 km/h 4.8 km/h 80% 0.0 mm 0 W/m2
17:27 6.4 °C 3.4 °C 1034.2 hPa ENE 3.2 km/h 8 km/h 81% 0.0 mm 0 W/m2
17:32 6.4 °C 3.4 °C 1034.2 hPa ENE 6.4 km/h 11.3 km/h 81% 0.0 mm 0 W/m2
17:37 6.3 °C 3.3 °C 1034.2 hPa SE 11.1 km/h 11.3 km/h 81% 0.0 mm 0 W/m2
17:42 6.3 °C 3.3 °C 1034.2 hPa ENE 3.2 km/h 9.7 km/h 81% 0.0 mm 0 W/m2
17:47 6.2 °C 3.2 °C 1034.2 hPa East 3.2 km/h 12.9 km/h 81% 0.0 mm 0 W/m2
17:52 6.1 °C 3.1 °C 1034.2 hPa ESE 4.7 km/h 9.7 km/h 81% 0.0 mm 0 W/m2
17:57 5.9 °C 3.1 °C 1033.9 hPa East 3.2 km/h 6.4 km/h 82% 0.0 mm 0 W/m2
18:02 5.8 °C 3 °C 1033.9 hPa East 1.4 km/h 6.4 km/h 82% 0.0 mm 0 W/m2
18:07 5.7 °C 2.9 °C 1033.9 hPa ESE 4.7 km/h 4.8 km/h 82% 0.0 mm 0 W/m2
18:12 5.6 °C 2.9 °C 1033.9 hPa East 6.4 km/h 11.3 km/h 83% 0.0 mm 0 W/m2
18:17 5.6 °C 2.9 °C 1033.9 hPa ESE 1.4 km/h 8 km/h 83% 0.0 mm 0 W/m2
18:22 5.4 °C 2.7 °C 1033.9 hPa East 3.2 km/h 9.7 km/h 83% 0.0 mm 0 W/m2
18:27 5.3 °C 2.8 °C 1033.9 hPa East 4.7 km/h 11.3 km/h 84% 0.0 mm 0 W/m2
18:32 5.3 °C 2.8 °C 1033.9 hPa East 4.7 km/h 14.5 km/h 84% 0.0 mm 0 W/m2
18:37 5.3 °C 2.8 °C 1033.9 hPa ESE 4.7 km/h 11.3 km/h 84% 0.0 mm 0 W/m2
18:42 5.2 °C 2.7 °C 1033.9 hPa ENE 7.9 km/h 12.9 km/h 84% 0.0 mm 0 W/m2
18:47 5.2 °C 2.7 °C 1033.9 hPa East 3.2 km/h 4.8 km/h 84% 0.0 mm 0 W/m2
18:52 5.1 °C 2.6 °C 1033.5 hPa East 6.4 km/h 12.9 km/h 84% 0.0 mm 0 W/m2
18:57 5.1 °C 2.6 °C 1033.5 hPa East 3.2 km/h 4.8 km/h 84% 0.0 mm 0 W/m2
19:02 5 °C 2.5 °C 1033.5 hPa East 6.4 km/h 12.9 km/h 84% 0.0 mm 0 W/m2
19:07 4.9 °C 2.4 °C 1033.5 hPa East 6.4 km/h 11.3 km/h 84% 0.0 mm 0 W/m2
19:12 4.8 °C 2.3 °C 1033.5 hPa SSE 3.2 km/h 4.8 km/h 84% 0.0 mm 0 W/m2
19:17 4.7 °C 2.4 °C 1033.5 hPa Calm   4.8 km/h 85% 0.0 mm 0 W/m2
19:22 4.6 °C 2.3 °C 1033.2 hPa ESE 3.2 km/h 9.7 km/h 85% 0.0 mm 0 W/m2
19:27 4.6 °C 2.3 °C 1033.2 hPa Calm   6.4 km/h 85% 0.0 mm 0 W/m2
19:32 4.4 °C 2.1 °C 1033.5 hPa ESE 3.2 km/h 12.9 km/h 85% 0.0 mm 0 W/m2
19:37 4.4 °C 2.3 °C 1033.5 hPa Calm   11.3 km/h 86% 0.0 mm 0 W/m2
19:42 4.4 °C 2.1 °C 1033.5 hPa Calm   12.9 km/h 85% 0.0 mm 0 W/m2
19:47 4.2 °C 2.1 °C 1033.5 hPa Calm   3.2 km/h 86% 0.0 mm 0 W/m2
19:52 4.1 °C 2 °C 1033.2 hPa Calm   4.8 km/h 86% 0.0 mm 0 W/m2
19:57 3.9 °C 1.8 °C 1033.2 hPa ESE 3.2 km/h 4.8 km/h 86% 0.0 mm 0 W/m2
20:02 3.9 °C 1.9 °C 1033.2 hPa East 1.4 km/h 6.4 km/h 87% 0.0 mm 0 W/m2
20:07 3.9 °C 1.9 °C 1033.5 hPa Calm   4.8 km/h 87% 0.0 mm 0 W/m2
20:12 3.9 °C 1.9 °C 1033.9 hPa East 1.4 km/h 4.8 km/h 87% 0.0 mm 0 W/m2
20:17 4 °C 2 °C 1033.9 hPa Calm     87% 0.0 mm 0 W/m2
20:23 3.9 °C 1.9 °C 1033.9 hPa Calm     87% 0.0 mm 0 W/m2
20:28 3.9 °C 2.1 °C 1033.9 hPa East 3.2 km/h 4.8 km/h 88% 0.0 mm 0 W/m2
20:33 4 °C 2.2 °C 1033.9 hPa East 1.4 km/h 4.8 km/h 88% 0.0 mm 0 W/m2
20:38 4.1 °C 2.1 °C 1033.9 hPa ESE 3.2 km/h 4.8 km/h 87% 0.0 mm 0 W/m2
20:43 4.2 °C 2.2 °C 1033.9 hPa ESE 3.2 km/h 4.8 km/h 87% 0.0 mm 0 W/m2
20:48 4.2 °C 2.2 °C 1033.5 hPa ESE 3.2 km/h 6.4 km/h 87% 0.0 mm 0 W/m2
20:53 4.1 °C 2.1 °C 1033.5 hPa ESE 1.4 km/h 4.8 km/h 87% 0.0 mm 0 W/m2
20:58 4.1 °C 2.1 °C 1033.5 hPa Calm   3.2 km/h 87% 0.0 mm 0 W/m2
21:03 4 °C 2 °C 1033.5 hPa Calm     87% 0.0 mm 0 W/m2
21:08 3.9 °C 2.1 °C 1033.9 hPa Calm   3.2 km/h 88% 0.0 mm 0 W/m2
21:13 3.9 °C 2.1 °C 1033.5 hPa Calm     88% 0.0 mm 0 W/m2
21:18 3.9 °C 2.1 °C 1033.5 hPa ESE 1.4 km/h 4.8 km/h 88% 0.0 mm 0 W/m2
21:23 4.1 °C 2.3 °C 1033.5 hPa ESE 3.2 km/h 4.8 km/h 88% 0.0 mm 0 W/m2
21:28 4.1 °C 2.3 °C 1033.2 hPa East 3.2 km/h 4.8 km/h 88% 0.0 mm 0 W/m2
21:33 4.2 °C 2.2 °C 1033.2 hPa East 4.7 km/h 4.8 km/h 87% 0.0 mm 0 W/m2
21:38 4.2 °C 2.2 °C 1033.2 hPa East 4.7 km/h 6.4 km/h 87% 0.0 mm 0 W/m2
21:43 4.2 °C 2.2 °C 1033.2 hPa ESE 1.4 km/h 3.2 km/h 87% 0.0 mm 0 W/m2
21:48 4.2 °C 2.2 °C 1033.2 hPa East 3.2 km/h 4.8 km/h 87% 0.0 mm 0 W/m2
21:53 4.2 °C 2.2 °C 1033.2 hPa ESE 3.2 km/h 4.8 km/h 87% 0.0 mm 0 W/m2
21:58 4.3 °C 2.3 °C 1033.2 hPa SE 1.4 km/h 6.4 km/h 87% 0.0 mm 0 W/m2
22:03 4.3 °C 2.3 °C 1033.2 hPa East 3.2 km/h 6.4 km/h 87% 0.0 mm 0 W/m2
22:08 4.4 °C 2.4 °C 1032.8 hPa ESE 3.2 km/h 6.4 km/h 87% 0.0 mm 0 W/m2
22:13 4.4 °C 2.4 °C 1032.8 hPa ENE 6.4 km/h 6.4 km/h 87% 0.0 mm 0 W/m2
22:18 4.4 °C 2.3 °C 1032.8 hPa ESE 3.2 km/h 9.7 km/h 86% 0.0 mm 0 W/m2
22:23 4.4 °C 2.3 °C 1032.5 hPa ESE 4.7 km/h 6.4 km/h 86% 0.0 mm 0 W/m2
22:28 4.4 °C 2.3 °C 1032.5 hPa East 4.7 km/h 6.4 km/h 86% 0.0 mm 0 W/m2
22:33 4.4 °C 2.3 °C 1032.5 hPa ESE 4.7 km/h 9.7 km/h 86% 0.0 mm 0 W/m2
22:38 4.4 °C 2.4 °C 1032.5 hPa ESE 4.7 km/h 9.7 km/h 87% 0.0 mm 0 W/m2
22:43 4.4 °C 2.4 °C 1032.8 hPa ESE 4.7 km/h 6.4 km/h 87% 0.0 mm 0 W/m2
22:48 4.4 °C 2.4 °C 1032.8 hPa ESE 4.7 km/h 6.4 km/h 87% 0.0 mm 0 W/m2
22:53 4.4 °C 2.4 °C 1032.8 hPa Calm   9.7 km/h 87% 0.0 mm 0 W/m2
22:58 4.4 °C 2.4 °C 1032.8 hPa ESE 3.2 km/h 4.8 km/h 87% 0.0 mm 0 W/m2
23:03 4.4 °C 2.4 °C 1032.8 hPa ESE 3.2 km/h 6.4 km/h 87% 0.0 mm 0 W/m2
23:08 4.4 °C 2.4 °C 1032.8 hPa East 4.7 km/h 14.5 km/h 87% 0.0 mm 0 W/m2
23:13 4.4 °C 2.4 °C 1032.8 hPa East 3.2 km/h 6.4 km/h 87% 0.0 mm 0 W/m2
23:18 4.4 °C 2.4 °C 1032.8 hPa ESE 9.7 km/h 12.9 km/h 87% 0.0 mm 0 W/m2
23:23 4.4 °C 2.4 °C 1032.8 hPa ESE 4.7 km/h 6.4 km/h 87% 0.0 mm 0 W/m2
23:28 4.4 °C 2.4 °C 1032.8 hPa ESE 3.2 km/h 9.7 km/h 87% 0.0 mm 0 W/m2
23:33 4.4 °C 2.3 °C 1032.5 hPa ESE 4.7 km/h 9.7 km/h 86% 0.0 mm 0 W/m2
23:38 4.5 °C 2.4 °C 1032.5 hPa East 3.2 km/h 4.8 km/h 86% 0.0 mm 0 W/m2
23:43 4.5 °C 2.4 °C 1032.5 hPa East 3.2 km/h 11.3 km/h 86% 0.0 mm 0 W/m2
23:48 4.5 °C 2.4 °C 1032.5 hPa ESE 6.4 km/h 8 km/h 86% 0.0 mm 0 W/m2
23:53 4.5 °C 2.4 °C 1032.2 hPa ESE 4.7 km/h 6.4 km/h 86% 0.0 mm 0 W/m2
23:58 4.5 °C 2.4 °C 1032.2 hPa East 1.4 km/h 4.8 km/h 86% 0.0 mm 0 W/m2
Juneau County Weather
Compliments of Weather Underground - 4 mb